Location: Unspecified
(48.8656°N, 0.0000°E)
Time: 02:17:37
(UTC+00:00)

Vanguard 1 - Pass Details

Date: 22 August 2020
Orbit: 650 x 3832 km, 34.2° (Epoch: 28 September)

Event Time Altitude Azimuth Distance (km) Brightness Sun altitude
Rises 04:19:28 0° 174° (S) 5,279 13.6 -7.4°
Reaches altitude 10° 04:25:11 10° 152° (SSE) 4,931 13.7 -6.6°
Maximum altitude 04:31:49 14° 124° (SE) 5,215 14.2 -5.6°
Drops below altitude 10° 04:39:51 10° 99° (E) 6,230 15.2 -4.4°
Sets 04:49:09 0° 80° (E) 7,755 16.8 -3.0°
